TimeCDT,TemperatureF,Dew PointF,Humidity,Sea Level PressureIn,VisibilityMPH,Wind Direction,Wind SpeedMPH,Gust SpeedMPH,PrecipitationIn,Events,Conditions,WindDirDegrees,DateUTC
12:56 AM,46.9,44.1,90,29.94,10.0,Calm,Calm,-,N/A,,Clear,0,2013-05-11 05:56:00
1:56 AM,46.9,45.0,93,29.92,10.0,Calm,Calm,-,N/A,,Clear,0,2013-05-11 06:56:00
2:56 AM,48.0,46.0,93,29.89,10.0,Calm,Calm,-,N/A,,Clear,0,2013-05-11 07:56:00
3:56 AM,48.0,46.0,93,29.87,7.0,Calm,Calm,-,N/A,,Scattered Clouds,0,2013-05-11 08:56:00
4:56 AM,48.9,46.9,93,29.85,6.0,Calm,Calm,-,N/A,,Overcast,0,2013-05-11 09:56:00
5:56 AM,48.9,46.9,93,29.82,5.0,SE,4.6,-,N/A,,Mostly Cloudy,130,2013-05-11 10:56:00
6:56 AM,51.1,48.0,89,29.82,6.0,Variable,3.5,-,N/A,,Scattered Clouds,0,2013-05-11 11:56:00
7:46 AM,53.6,46.4,77,29.83,10.0,WNW,19.6,27.6,N/A,,Mostly Cloudy,290,2013-05-11 12:46:00
7:56 AM,53.1,45.0,74,29.83,10.0,WNW,21.9,32.2,N/A,,Mostly Cloudy,300,2013-05-11 12:56:00
8:56 AM,50.0,37.9,63,29.89,10.0,NNW,24.2,40.3,0.01,,Mostly Cloudy,330,2013-05-11 13:56:00
9:05 AM,50.0,37.4,62,29.90,10.0,NW,18.4,32.2,N/A,,Mostly Cloudy,320,2013-05-11 14:05:00
9:56 AM,53.1,37.0,55,29.89,10.0,NW,19.6,25.3,N/A,,Clear,310,2013-05-11 14:56:00
10:56 AM,52.0,28.9,41,29.93,10.0,NW,23.0,34.5,N/A,,Clear,310,2013-05-11 15:56:00
11:56 AM,53.1,27.0,37,29.94,10.0,NNW,23.0,32.2,N/A,,Clear,330,2013-05-11 16:56:00
12:56 PM,54.0,27.0,35,29.95,10.0,NW,19.6,32.2,N/A,,Scattered Clouds,310,2013-05-11 17:56:00
1:56 PM,54.0,27.0,35,29.96,10.0,NW,24.2,34.5,N/A,,Mostly Cloudy,310,2013-05-11 18:56:00
2:56 PM,51.1,26.1,38,29.99,10.0,NW,16.1,40.3,0.00,,Mostly Cloudy,310,2013-05-11 19:56:00
3:56 PM,52.0,28.0,40,29.98,10.0,NW,10.4,20.7,0.00,,Partly Cloudy,320,2013-05-11 20:56:00
4:56 PM,51.1,27.0,39,30.01,10.0,NW,21.9,34.5,0.00,,Mostly Cloudy,320,2013-05-11 21:56:00
5:56 PM,50.0,21.9,33,30.02,10.0,NW,15.0,29.9,N/A,,Clear,320,2013-05-11 22:56:00
6:56 PM,48.9,26.1,41,30.03,10.0,NW,11.5,19.6,N/A,,Clear,320,2013-05-11 23:56:00
7:56 PM,48.0,26.1,42,30.04,10.0,NNW,11.5,-,N/A,,Overcast,340,2013-05-12 00:56:00
8:56 PM,46.9,21.0,36,30.06,10.0,NW,13.8,23.0,N/A,,Partly Cloudy,310,2013-05-12 01:56:00
10:56 PM,44.1,24.1,45,30.07,10.0,WNW,10.4,-,N/A,,Clear,290,2013-05-12 03:56:00
11:56 PM,43.0,24.1,47,30.08,10.0,WNW,9.2,-,N/A,,Clear,300,2013-05-12 04:56:00